NETSAT-2 (46507 NORAD) Tracking and Keplerian Element Data

This shows tracking and keplerian element data for the satellite.

Feedback or suggestion? Click here.




ElementValue
Catalog46507
NameNETSAT-2
Epoch Orbit469
Epoch Day304.5958387
Epoch Year2020
RAAN237.7107
Inclination97.6636
Eccentricity0.0012104
Argument of Perigee143.644
Mean Anonmoly216.5601
Mean Motion15.0174565
Decay Rate-5.9E-07
L11 46507U 20068X 20304.59583870 -.00000059 00000-0 67007-7 0 9994
L22 46507 97.6636 237.7107 0012104 143.6440 216.5601 15.01745650 4692

Live tracking and technical data element details for NETSAT-2 (NORAD 46507). NETSAT-2 can be tracked NOW for your location showing map with azimuth and elevation plus other details from your city location.

Track the satellite on the map from your city or location and see movement details for azimuth, elevation, latitude, longitude, range, height, and movement on the map or in text.







IsCatalogInMostPopularTable: catalog: 46507, numindb: 4
Update: records affected: 1



GetName: 46507 NETSAT-2

Hit Count: updated at: Sat, 31 Oct 2020 11:39:08 GMT